Location: Ljubljana
(46.0550°N, 14.5140°E)
Time: 17:57:20
(UTC+01:00)

Tiangong 1 - Visible Passes

Search period start: 14 December 2017 00:00
Search period end: 24 December 2017 00:00
Orbit: 275 x 302 km, 42.8° (Epoch: 14 December)

Date Brightness Start Highest point End Pass type
(mag) Time Alt. Az. Time Alt. Az. Time Alt. Az.
21 Dec 3.6 05:46:28 10° S 05:47:35 12° SSE 05:48:44 10° SE visible
22 Dec 2.9 05:50:10 16° S 05:50:51 18° SSE 05:52:42 10° ESE visible
23 Dec 2.3 05:53:39 24° S 05:54:03 25° SSE 05:56:12 10° ESE visible
